DW3823 Weather Reports


Display with metric or nautical units.
time (UTC)temp
F
wind
direction
speed
MPH
gust
MPH
rain 1hr
in
rain 24hr
in
rain mn
in
humidity
%
barometer
mb
20260901203526 94 164 2.0 3.0 0.00 0.00 0.00 47 1017.2
20260901203028 94 335 1.0 3.0 0.00 0.00 0.00 49 1017.1
20260901202525 94 355 2.0 3.0 0.00 0.00 0.00 47 1017.4
20260901202024 94 24 1.0 4.0 0.00 0.00 0.00 53 1017.4
20260901201523 94 40 1.0 4.0 0.00 0.00 0.00 52 1017.4
20260901201023 93 81 2.0 6.0 0.00 0.00 0.00 54 1017.6
20260901200522 93 86 1.0 6.0 0.00 0.00 0.00 51 1017.7
20260901200031 94 343 2.0 5.0 0.00 0.00 0.00 53 1017.7
20260901195521 93 91 2.0 5.0 0.00 0.00 0.00 51 1017.8
20260901195022 93 355 1.0 3.0 0.00 0.00 0.00 52 1017.9
20260901194521 93 23 1.0 4.0 0.00 0.00 0.00 51 1017.7
20260901194021 93 90 2.0 6.0 0.00 0.00 0.00 52 1017.8
20260901193520 93 360 1.0 4.0 0.00 0.00 0.00 55 1017.7
20260901193020 93 175 1.0 4.0 0.00 0.00 0.00 50 1017.8
20260901192520 93 279 1.0 5.0 0.00 0.00 0.00 51 1017.8
20260901192019 93 62 1.0 4.0 0.00 0.00 0.00 52 1017.9
20260901191519 93 313 0.0 4.0 0.00 0.00 0.00 51 1018.1
20260901191018 92 313 2.0 5.0 0.00 0.00 0.00 53 1018.2
20260901190519 93 82 2.0 5.0 0.00 0.00 0.00 53 1018.2
20260901190022 93 279 1.0 5.0 0.00 0.00 0.00 52 1018.2
20260901185517 93 25 1.0 4.0 0.00 0.00 0.00 55 1018.4
20260901185017 92 63 1.0 6.0 0.00 0.00 0.00 55 1018.4
20260901184516 93 42 2.0 6.0 0.00 0.00 0.00 54 1018.4
20260901184016 92 70 2.0 5.0 0.00 0.00 0.00 53 1018.6
20260901183518 92 69 2.0 5.0 0.00 0.00 0.00 55 1018.7
20260901183017 92 59 1.0 4.0 0.00 0.00 0.00 54 1018.5
20260901182515 92 340 2.0 4.0 0.00 0.00 0.00 55 1018.7
20260901182014 92 76 2.0 5.0 0.00 0.00 0.00 54 1018.5
20260901181519 92 11 1.0 5.0 0.00 0.00 0.00 57 1018.5
20260901181015 92 43 1.0 5.0 0.00 0.00 0.00 55 1018.4
20260901180518 92 19 1.0 4.0 0.00 0.00 0.00 58 1018.7
20260901180013 93 104 1.0 5.0 0.00 0.00 0.00 55 1018.6
20260901175511 92 42 1.0 5.0 0.00 0.00 0.00 54 1018.7
20260901175011 92 294 1.0 4.0 0.00 0.00 0.00 53 1018.7
20260901174511 91 5 0.0 4.0 0.00 0.00 0.00 57 1018.9
20260901174009 91 246 0.0 7.0 0.00 0.00 0.00 55 1018.9
20260901173508 91 245 3.0 7.0 0.00 0.00 0.00 57 1019.0
20260901173007 90 76 1.0 5.0 0.00 0.00 0.00 62 1019.1
20260901172507 89 138 1.0 3.0 0.00 0.00 0.00 59 1019.2
20260901172007 90 351 0.0 3.0 0.00 0.00 0.00 60 1019.3
20260901171507 90 82 0.0 3.0 0.00 0.00 0.00 58 1019.1
20260901171010 89 84 1.0 3.0 0.00 0.00 0.00 58 1019.1
20260901170506 87 97 2.0 3.0 0.00 0.00 0.00 64 1019.4
20260901170005 85 34 0.0 3.0 0.00 0.00 0.00 67 1019.4
20260901165507 86 34 1.0 3.0 0.00 0.00 0.00 66 1019.4
20260901165005 88 320 1.0 4.0 0.00 0.00 0.00 62 1019.6
20260901164505 89 80 1.0 5.0 0.00 0.00 0.00 61 1019.8
20260901164004 90 291 2.0 4.0 0.00 0.00 0.00 62 1019.7
20260901163503 90 86 1.0 5.0 0.00 0.00 0.00 58 1019.8
20260901163002 90 75 1.0 5.0 0.00 0.00 0.00 61 1019.8
20260901162504 90 360 1.0 5.0 0.00 0.00 0.00 60 1020.0
20260901162100 90 57 1.0 5.0 0.00 0.00 0.00 60 1019.9
20260901161559 89 243 1.0 4.0 0.00 0.00 0.00 60 1020.0
20260901161057 90 238 1.0 5.0 0.00 0.00 0.00 59 1019.9
20260901160555 90 312 1.0 5.0 0.00 0.00 0.00 59 1019.9
20260901160100 89 269 2.0 6.0 0.00 0.00 0.00 62 1020.0
20260901155556 89 308 1.0 8.0 0.00 0.00 0.00 62 1020.0
20260901155050 88 33 4.0 8.0 0.00 0.00 0.00 61 1019.8
20260901154557 89 57 2.0 5.0 0.00 0.00 0.00 63 1019.8
20260901154049 89 313 2.0 4.0 0.00 0.00 0.00 63 1020.0
20260901153547 89 242 2.0 4.0 0.00 0.00 0.00 64 1019.9
20260901153050 88 250 3.0 4.0 0.00 0.00 0.00 63 1020.0
20260901152545 88 259 2.0 4.0 0.00 0.00 0.00 66 1020.1
20260901152046 87 172 0.0 4.0 0.00 0.00 0.00 66 1020.1
20260901151542 87 223 0.0 6.0 0.00 0.00 0.00 66 1020.2
20260901151043 87 226 1.0 6.0 0.00 0.00 0.00 66 1020.1
20260901150541 87 235 2.0 4.0 0.00 0.00 0.00 66 1020.2
20260901150038 86 253 2.0 3.0 0.00 0.00 0.00 67 1020.1
20260901145537 86 230 0.0 4.0 0.00 0.00 0.00 70 1019.9
20260901145034 86 240 1.0 4.0 0.00 0.00 0.00 68 1019.9
20260901144534 85 185 1.0 4.0 0.00 0.00 0.00 70 1020.0
20260901144033 85 239 0.0 4.0 0.00 0.00 0.00 70 1020.1
20260901143531 84 227 1.0 4.0 0.00 0.00 0.00 70 1020.0
20260901143030 84 273 1.0 6.0 0.00 0.00 0.00 70 1020.0
20260901142528 83 264 0.0 6.0 0.00 0.00 0.00 71 1020.0
20260901142028 83 231 1.0 4.0 0.00 0.00 0.00 72 1020.2
20260901141526 82 227 1.0 4.0 0.00 0.00 0.00 71 1020.1
20260901141027 82 232 2.0 3.0 0.00 0.00 0.00 71 1020.2
20260901140529 82 190 2.0 3.0 0.00 0.00 0.00 70 1020.1
20260901140025 82 229 1.0 3.0 0.00 0.00 0.00 72 1020.1
20260901135524 82 229 1.0 3.0 0.00 0.00 0.00 70 1020.2
20260901135023 81 205 0.0 3.0 0.00 0.00 0.00 73 1020.2
20260901134522 81 205 0.0 3.0 0.00 0.00 0.00 73 1020.1
20260901134021 81 236 1.0 3.0 0.00 0.00 0.00 74 1020.3
20260901133521 80 221 0.0 3.0 0.00 0.00 0.00 76 1020.4
20260901133019 80 203 0.0 3.0 0.00 0.00 0.00 76 1020.4
20260901132518 79 161 1.0 5.0 0.00 0.00 0.00 77 1020.3
20260901132017 79 158 1.0 5.0 0.00 0.00 0.00 78 1020.2
20260901131514 78 134 0.0 2.0 0.00 0.00 0.00 81 1020.3
20260901131013 77 131 0.0 2.0 0.00 0.00 0.00 82 1020.3
20260901130512 76 130 1.0 2.0 0.00 0.00 0.00 85 1020.0
20260901130010 75 129 0.0 2.0 0.00 0.00 0.00 87 1020.0
20260901125511 74 217 0.0 1.0 0.00 0.00 0.00 90 1020.0
20260901125007 73 217 0.0 1.0 0.00 0.00 0.00 91 1020.0
20260901124510 72 217 0.0 0.0 0.00 0.00 0.00 92 1020.0
20260901124008 72 107 0.0 0.0 0.00 0.00 0.00 93 1019.9
20260901123507 72 107 0.0 0.0 0.00 0.00 0.00 93 1019.7
20260901123006 71 107 0.0 0.0 0.00 0.00 0.00 93 1019.8
20260901122504 71 107 0.0 0.0 0.00 0.00 0.00 93 1019.7
20260901122002 71 107 0.0 0.0 0.00 0.00 0.00 93 1019.7
20260901121606 71 108 0.0 0.0 0.00 0.00 0.00 93 1019.7
20260901121002 70 107 0.0 1.0 0.00 0.00 0.00 93 1019.6
20260901120600 70 107 0.0 1.0 0.00 0.00 0.00 93 1019.5
20260901120059 70 333 0.0 0.0 0.00 0.00 0.00 93 1019.4
20260901115557 70 333 0.0 0.0 0.00 0.00 0.00 93 1019.2
20260901115056 70 333 0.0 0.0 0.00 0.00 0.00 93 1019.3
20260901114555 70 333 0.0 0.0 0.00 0.00 0.00 94 1019.1
20260901114055 70 333 0.0 0.0 0.00 0.00 0.00 94 1019.1
20260901113554 70 333 0.0 0.0 0.00 0.00 0.00 93 1019.0
20260901113056 70 333 0.0 1.0 0.00 0.00 0.00 93 1019.0
20260901112552 70 333 0.0 0.0 0.00 0.00 0.00 93 1018.8
20260901112056 70 333 0.0 0.0 0.00 0.00 0.00 93 1018.8
20260901111551 70 333 0.0 0.0 0.00 0.00 0.00 93 1018.7
20260901111051 70 333 0.0 0.0 0.00 0.00 0.00 93 1018.6
20260901110549 70 333 0.0 0.0 0.00 0.00 0.00 92 1018.7
20260901110049 70 333 0.0 0.0 0.00 0.00 0.00 92 1018.7
20260901105548 70 333 0.0 0.0 0.00 0.00 0.00 92 1018.6
20260901105048 71 333 0.0 1.0 0.00 0.00 0.00 91 1018.6
20260901104548 71 333 0.0 1.0 0.00 0.00 0.00 91 1018.5
20260901104048 71 333 0.0 1.0 0.00 0.00 0.00 91 1018.5
20260901103547 71 333 0.0 1.0 0.00 0.00 0.00 92 1018.5
20260901103049 71 333 0.0 1.0 0.00 0.00 0.00 91 1018.4
20260901102548 71 333 0.0 2.0 0.00 0.00 0.00 91 1018.3
20260901102047 71 333 0.0 2.0 0.00 0.00 0.00 91 1018.4
20260901101607 71 333 0.0 2.0 0.00 0.00 0.00 91 1018.3
20260901101051 71 333 0.0 2.0 0.00 0.00 0.00 92 1018.3
20260901100550 71 333 0.0 2.0 0.00 0.00 0.00 93 1018.3
20260901100047 71 333 0.0 1.0 0.00 0.00 0.00 93 1018.3
20260901095546 71 333 0.0 2.0 0.00 0.00 0.00 93 1018.2
20260901095046 71 333 0.0 2.0 0.00 0.00 0.00 93 1018.3
20260901094546 71 333 0.0 0.0 0.00 0.00 0.00 94 1018.3
20260901094047 70 333 0.0 0.0 0.00 0.00 0.00 94 1018.3
20260901093549 70 333 0.0 0.0 0.00 0.00 0.00 94 1018.3
20260901093046 70 333 0.0 0.0 0.00 0.00 0.00 93 1018.1
20260901092546 70 333 0.0 0.0 0.00 0.00 0.00 93 1018.1
20260901092045 70 333 0.0 0.0 0.00 0.00 0.00 94 1018.1
20260901091545 70 333 0.0 0.0 0.00 0.00 0.00 93 1018.2
20260901091045 70 333 0.0 0.0 0.00 0.00 0.00 93 1018.1
20260901090544 70 333 0.0 0.0 0.00 0.00 0.00 93 1017.9
20260901090043 71 333 0.0 0.0 0.00 0.00 0.00 93 1018.1
20260901085542 71 333 0.0 0.0 0.00 0.00 0.00 92 1018.3
20260901085041 71 333 0.0 0.0 0.00 0.00 0.00 92 1018.1
20260901084543 71 333 0.0 0.0 0.00 0.00 0.00 92 1018.2
20260901084043 71 333 0.0 0.0 0.00 0.00 0.00 92 1018.2
20260901083542 71 333 0.0 0.0 0.00 0.00 0.00 92 1018.1
20260901083041 71 333 0.0 0.0 0.00 0.00 0.00 92 1018.0
20260901082541 71 333 0.0 0.0 0.00 0.00 0.00 93 1017.9
20260901082041 71 333 0.0 0.0 0.00 0.00 0.00 92 1017.7
20260901081547 71 333 0.0 0.0 0.00 0.00 0.00 93 1017.7
20260901081039 71 333 0.0 0.0 0.00 0.00 0.00 93 1017.7
20260901080539 71 333 0.0 0.0 0.00 0.00 0.00 92 1017.7
20260901080048 71 333 0.0 0.0 0.00 0.00 0.00 92 1017.7
20260901075538 71 333 0.0 0.0 0.00 0.00 0.00 92 1017.7
20260901075039 71 333 0.0 0.0 0.00 0.00 0.00 92 1017.7
20260901074544 71 333 0.0 0.0 0.00 0.00 0.00 92 1017.7
20260901074036 71 333 0.0 0.0 0.00 0.00 0.00 92 1017.7
20260901073539 71 333 0.0 0.0 0.00 0.00 0.00 92 1017.7
20260901073039 71 333 0.0 0.0 0.00 0.00 0.00 92 1017.7
20260901072534 71 333 0.0 0.0 0.00 0.00 0.00 92 1017.9
20260901072036 71 333 0.0 0.0 0.00 0.00 0.00 92 1018.0
20260901071533 71 333 0.0 0.0 0.00 0.00 0.00 92 1018.0
20260901071032 71 333 0.0 0.0 0.00 0.00 0.00 92 1017.9
20260901070532 71 333 0.0 0.0 0.00 0.00 0.00 91 1018.0
20260901070034 71 333 0.0 0.0 0.00 0.00 0.00 91 1018.1
20260901065531 71 333 0.0 0.0 0.00 0.00 0.00 91 1018.0
20260901065032 71 333 0.0 0.0 0.00 0.00 0.00 91 1018.2
20260901064532 71 333 0.0 0.0 0.00 0.00 0.00 91 1018.3
20260901064031 71 333 0.0 0.0 0.00 0.00 0.00 91 1018.1
20260901063529 72 333 0.0 0.0 0.00 0.00 0.00 90 1018.1
20260901063032 72 333 0.0 0.0 0.00 0.00 0.00 90 1018.1
20260901062530 72 333 0.0 0.0 0.00 0.00 0.00 90 1017.9
20260901062030 72 333 0.0 0.0 0.00 0.00 0.00 90 1018.2
20260901061528 72 333 0.0 0.0 0.00 0.00 0.00 90 1018.3
20260901061028 72 333 0.0 0.0 0.00 0.00 0.00 90 1018.2
20260901060528 72 333 0.0 0.0 0.00 0.00 0.00 90 1018.2
20260901060026 72 333 0.0 1.0 0.00 0.00 0.00 90 1018.4
20260901055527 72 333 0.0 1.0 0.00 0.00 0.00 90 1018.4
20260901055025 72 333 0.0 0.0 0.00 0.00 0.00 90 1018.4
20260901054522 72 333 0.0 0.0 0.00 0.00 0.00 90 1018.5
20260901054022 73 333 0.0 0.0 0.00 0.00 0.00 89 1018.5
20260901053521 73 332 0.0 1.0 0.00 0.00 0.00 88 1018.3
20260901053019 73 331 0.0 1.0 0.00 0.00 0.00 89 1018.3
20260901052517 73 333 0.0 1.0 0.00 0.00 0.00 89 1018.3
20260901052016 73 333 0.0 0.0 0.00 0.00 0.00 89 1018.3
20260901051527 73 333 0.0 0.0 0.00 0.00 0.00 89 1018.5
20260901051013 73 332 0.0 0.0 0.00 0.00 0.00 90 1018.6
20260901050512 73 333 0.0 0.0 0.00 0.00 0.00 90 1018.6
20260901050011 73 333 0.0 0.0 0.00 0.00 0.00 90 1018.4
20260901045512 73 333 0.0 0.0 0.00 0.00 0.00 89 1018.3
20260901045010 73 360 0.0 0.0 0.00 0.00 0.00 89 1018.3
20260901044510 73 360 0.0 0.0 0.00 0.00 0.00 88 1018.4
20260901044011 73 333 0.0 0.0 0.00 0.00 0.00 88 1018.3
20260901043510 74 360 0.0 0.0 0.00 0.00 0.00 88 1018.2
20260901043009 73 333 0.0 0.0 0.00 0.00 0.00 89 1018.4
20260901042508 74 333 0.0 1.0 0.00 0.00 0.00 88 1018.5
20260901042008 74 332 0.0 1.0 0.00 0.00 0.00 89 1018.6
20260901041509 73 333 0.0 0.0 0.00 0.00 0.00 89 1018.5
20260901041007 73 333 0.0 0.0 0.00 0.00 0.00 89 1018.4
20260901040507 73 360 0.0 0.0 0.00 0.00 0.00 89 1018.5
20260901040006 73 333 0.0 0.0 0.00 0.00 0.00 89 1018.5
20260901035506 74 360 0.0 0.0 0.00 0.00 0.00 89 1018.3
20260901035006 74 333 0.0 0.0 0.00 0.00 0.00 89 1018.4
20260901034506 74 332 0.0 0.0 0.00 0.00 0.00 89 1018.1
20260901034006 74 333 0.0 0.0 0.00 0.00 0.00 88 1018.2
20260901033506 74 333 0.0 0.0 0.00 0.00 0.00 88 1018.3
20260901033008 74 360 0.0 0.0 0.00 0.00 0.00 88 1018.3
20260901032507 74 360 0.0 0.0 0.00 0.00 0.00 88 1018.3
20260901032010 74 333 0.0 0.0 0.00 0.00 0.00 88 1018.2
20260901031505 74 333 0.0 0.0 0.00 0.00 0.00 87 1018.1
20260901031005 75 360 0.0 0.0 0.00 0.00 0.00 88 1018.2
20260901030505 75 332 0.0 0.0 0.00 0.00 0.00 88 1018.2
20260901030005 75 333 0.0 0.0 0.00 0.00 0.00 87 1018.3
20260901025505 75 360 0.0 0.0 0.00 0.00 0.00 87 1018.3
20260901025005 75 333 0.0 0.0 0.00 0.00 0.00 87 1018.2
20260901024505 75 360 0.0 0.0 0.00 0.00 0.00 86 1018.3
20260901024005 76 360 0.0 0.0 0.00 0.00 0.00 85 1018.0
20260901023504 76 333 0.0 0.0 0.00 0.00 0.00 85 1018.1
20260901023004 76 333 0.0 0.0 0.00 0.00 0.00 85 1018.0
20260901022505 76 360 0.0 0.0 0.00 0.00 0.00 86 1017.9
20260901022004 76 360 0.0 0.0 0.00 0.00 0.00 86 1018.0
20260901021503 76 360 0.0 0.0 0.00 0.00 0.00 86 1018.0
20260901021003 76 360 0.0 0.0 0.00 0.00 0.00 86 1018.0
20260901020506 76 360 0.0 0.0 0.00 0.00 0.00 87 1017.7
20260901020004 76 360 0.0 0.0 0.00 0.00 0.00 86 1017.8
20260901015502 76 332 0.0 0.0 0.00 0.00 0.00 86 1017.7
20260901015004 76 332 0.0 0.0 0.00 0.00 0.00 86 1017.7
20260901014501 77 333 0.0 0.0 0.00 0.00 0.00 85 1017.8
20260901014004 77 333 0.0 0.0 0.00 0.00 0.00 85 1017.8
20260901013502 77 333 0.0 0.0 0.00 0.00 0.00 85 1017.6
20260901013003 77 333 0.0 0.0 0.00 0.00 0.00 84 1017.7
20260901012501 78 333 0.0 0.0 0.00 0.00 0.00 83 1017.6
20260901012002 78 333 0.0 0.0 0.00 0.00 0.00 82 1017.5
20260901011501 78 333 0.0 0.0 0.00 0.00 0.00 83 1017.3
20260901011002 78 333 0.0 0.0 0.00 0.00 0.00 83 1017.5
20260901010501 78 333 0.0 0.0 0.00 0.00 0.00 84 1017.2
20260901010002 79 333 0.0 0.0 0.00 0.00 0.00 82 1017.1
20260901005600 79 333 0.0 0.0 0.00 0.00 0.00 83 1017.2
20260901005059 79 333 0.0 0.0 0.00 0.00 0.00 83 1017.1
20260901004600 79 333 0.0 0.0 0.00 0.00 0.00 83 1017.2
20260901004059 79 333 0.0 0.0 0.00 0.00 0.00 83 1017.1
20260901003559 79 333 0.0 0.0 0.00 0.00 0.00 84 1017.1
20260901003059 80 333 0.0 0.0 0.00 0.00 0.00 83 1017.1
20260901002559 80 333 0.0 0.0 0.00 0.00 0.00 82 1017.2
20260901002058 81 333 0.0 0.0 0.00 0.00 0.00 80 1017.2
20260901001605 81 333 0.0 0.0 0.00 0.00 0.00 79 1017.1
20260901001058 81 333 0.0 0.0 0.00 0.00 0.00 80 1017.1
20260901000558 82 333 0.0 0.0 0.00 0.00 0.00 80 1017.2
20260901000107 82 333 0.0 0.0 0.00 0.00 0.00 80 1017.1
20260831235559 82 333 0.0 1.0 0.00 0.00 0.00 79 1017.2
20260831235057 82 333 0.0 1.0 0.00 0.00 0.00 80 1017.1
20260831234618 82 333 0.0 1.0 0.00 0.00 0.00 79 1017.0
20260831234057 83 333 0.0 0.0 0.00 0.00 0.00 78 1017.0
20260831233558 84 333 0.0 0.0 0.00 0.00 0.00 76 1017.0
20260831233118 84 333 0.0 0.0 0.00 0.00 0.00 75 1016.9
20260831232556 85 333 0.0 0.0 0.00 0.00 0.00 73 1017.2
20260831232055 85 333 0.0 0.0 0.00 0.00 0.00 72 1017.1
20260831231555 86 333 0.0 1.0 0.00 0.00 0.00 68 1017.3
20260831231055 87 333 0.0 1.0 0.00 0.00 0.00 66 1017.2
20260831230556 88 333 0.0 2.0 0.00 0.00 0.00 63 1017.3
20260831230054 89 333 0.0 2.0 0.00 0.00 0.00 58 1017.3
20260831225554 89 333 0.0 2.0 0.00 0.00 0.00 57 1017.5
20260831225053 89 333 0.0 1.0 0.00 0.00 0.00 59 1017.5
20260831224552 89 333 0.0 2.0 0.00 0.00 0.00 58 1017.5
20260831224055 89 333 0.0 2.0 0.00 0.00 0.00 60 1017.5
20260831223554 90 333 0.0 2.0 0.00 0.00 0.00 57 1017.7
20260831223053 90 333 0.0 2.0 0.00 0.00 0.00 56 1017.7
20260831222552 91 333 0.0 3.0 0.00 0.00 0.00 56 1017.5
20260831222053 90 39 0.0 3.0 0.00 0.00 0.00 54 1017.6
20260831221552 91 40 0.0 3.0 0.00 0.00 0.00 54 1017.6
20260831221052 91 41 0.0 3.0 0.00 0.00 0.00 54 1017.6
20260831220554 92 41 0.0 3.0 0.00 0.00 0.00 53 1017.7
20260831220052 92 38 0.0 3.0 0.00 0.00 0.00 53 1017.6
20260831215550 92 37 1.0 3.0 0.00 0.00 0.00 54 1017.5
20260831215051 92 39 0.0 3.0 0.00 0.00 0.00 55 1017.7
20260831214603 91 72 1.0 3.0 0.00 0.00 0.00 53 1017.6
20260831214051 90 177 1.0 3.0 0.00 0.00 0.00 55 1017.9
20260831213551 90 351 0.0 3.0 0.00 0.00 0.00 53 1017.8
20260831213049 90 21 0.0 3.0 0.00 0.00 0.00 55 1017.8
20260831212553 91 19 1.0 5.0 0.00 0.00 0.00 53 1017.9
20260831212049 91 51 1.0 5.0 0.00 0.00 0.00 52 1018.1
20260831211548 92 65 1.0 3.0 0.00 0.00 0.00 52 1017.9
20260831211048 92 323 1.0 3.0 0.00 0.00 0.00 53 1018.1
20260831210548 93 13 1.0 4.0 0.00 0.00 0.00 55 1018.0
20260831210048 92 304 1.0 4.0 0.00 0.00 0.00 51 1018.1
20260831205548 92 15 1.0 4.0 0.00 0.00 0.00 54 1017.9
20260831205051 93 309 1.0 4.0 0.00 0.00 0.00 55 1018.0
20260831204547 92 269 0.0 6.0 0.00 0.00 0.00 52 1018.1
20260831204047 92 262 0.0 6.0 0.00 0.00 0.00 51 1018.1